Location: Bow
(51.5261°N, 0.0167°W)
Time: 13:09:44
(UTC+00:00)

Cosmos 2026 Rocket - Pass Details

Date: 18 September 2020
Orbit: 940 x 1000 km, 82.9° (Epoch: 21 October)

Event Time Altitude Azimuth Distance (km) Brightness Sun altitude
Rises 19:54:46 0° 351° (N) 3,712 7.5 -17.0°
Reaches altitude 10° 19:57:21 10° 356° (N) 2,767 6.8 -17.4°
Maximum altitude 20:03:36 56° 74° (ENE) 1,181 4.2 -18.3°
Enters shadow 20:06:56 28° 141° (SE) 1,784 4.9 -18.7°
